www.pogodaiklimat.ru

Погода и климат >> Архив погоды >> Австралия >> Новый Южный Уэльс >> Перпендикуляр Пойнт


ПОГОДА в Перпендикуляр Пойнт

  • Прогноз погоды в Перпендикуляр Пойнт
  • Монитор погоды в Перпендикуляр Пойнт

АРХИВ ПОГОДЫ в Перпендикуляр Пойнт

Время (UTC), дата Ветер
(напр.,м/с)
 
Видим.   Явления Облачность Т
(С)
Тd
(С)
f
(%)
Тe
(С)
Тes
(С)
Комфортность P
(гПа)
Po
(гПа)
Тmin
(С)
Tmax
(С)
R
(мм)
R24
(мм)
S
(см)
01 12.02 С 8 н/о н/о +31.5 +10.8 28 +31 +31 жарко 996.0 986.4 +19.0
02 12.02 СЗ 9 н/о н/о +34.0 +7.1 19 +32 +32 жарко 994.8 985.2
04 12.02 СЗ 6 н/о н/о +33.6 +1.4 13 +30 +30 жарко 993.6 984.0
05 12.02 З 5 н/о н/о +32.8 +3.7 16 +30 +30 жарко 993.7 984.1
07 12.02 З 4 н/о н/о +32.4 +6.6 20 +31 +31 жарко 994.4 984.8
08 12.02 З 2 н/о н/о +31.5 +8.5 24 +30 +30 жарко 995.3 985.7
10 12.02 Ю 7 н/о н/о +21.1 +18.1 83 +25 +25 комфорт 997.2 987.6
11 12.02 Ю 8 н/о н/о +20.6 +17.4 82 +24 +24 комфорт 999.8 990.2
13 12.02 Ю 9 н/о н/о +18.3 +14.6 79 +18 +18 1001.6 992.0 +34.2
14 12.02 Ю 7 н/о н/о +18.1 +14.2 78 +18 +18 1001.8 992.2
16 12.02 Ю 8 н/о н/о +16.7 +13.4 81 +15 +15 1002.2 992.6
17 12.02 ЮЗ 6 н/о н/о +16.9 +13.2 79 +16 +16 1002.5 992.9
19 12.02 ЮЗ 5 н/о н/о +17.6 +13.7 78 +17 +17 1003.4 993.7
20 12.02 ЮЗ 4 н/о н/о +16.7 +14.0 84 +16 +16 1004.3 994.6
22 12.02 ЮЗ 5 н/о н/о +16.9 +13.2 79 +16 +16 1006.1 996.4
23 12.02 ЮЗ 5 н/о н/о +17.2 +13.3 78 +17 +17 1006.6 996.9
01 13.02 Ю 5 н/о н/о +19.4 +14.0 71 +21 +21 комфорт 1007.2 997.5 +16.3
02 13.02 Ю 5 н/о н/о +20.1 +12.6 62 +22 +22 комфорт 1007.2 997.5
04 13.02 Ю 5 н/о н/о +20.7 +12.4 59 +23 +23 комфорт 1007.6 997.9
05 13.02 ЮВ 6 н/о н/о +20.6 +11.2 55 +22 +22 комфорт 1008.1 998.4
07 13.02 Ю 7 н/о н/о +19.6 +10.0 54 +20 +20 1010.2 1000.5
08 13.02 Ю 6 н/о н/о +19.0 +10.0 56 +19 +19 1011.4 1001.7
10 13.02 Ю 6 н/о н/о +18.6 +10.2 58 +19 +19 1014.1 1004.3
11 13.02 Ю 6 н/о н/о +18.4 +10.5 60 +18 +18 1015.3 1005.5
13 13.02 Ю 5 н/о н/о +18.0 +9.9 59 +18 +18 1015.9 1006.1 +21.3
14 13.02 Ю 5 н/о н/о +18.0 +9.4 57 +18 +18 1016.0 1006.2
16 13.02 Ю 4 н/о н/о +17.6 +10.2 62 +17 +17 1015.8 1006.0
17 13.02 Ю 4 н/о н/о +17.5 +10.1 62 +17 +17 1015.8 1006.0
19 13.02 Ю 3 н/о н/о +17.5 +9.9 61 +18 +18 1017.0 1007.2
20 13.02 Ю 3 н/о н/о +17.6 +10.2 62 +18 +18 1017.9 1008.1
22 13.02 Ю 3 н/о н/о +18.9 +10.5 58 +20 +20 1019.5 1009.7
23 13.02 Ю 3 н/о н/о +19.9 +11.1 57 +22 +22 комфорт 1019.9 1010.1
01 14.02 ЮВ 3 н/о н/о +20.9 +12.3 58 +24 +24 комфорт 1019.9 1010.1 +17.4
02 14.02 ЮВ 3 н/о н/о +21.7 +12.5 56 +24 +24 комфорт 1019.5 1009.7
04 14.02 В 5 н/о н/о +21.5 +12.9 58 +24 +24 комфорт 1018.3 1008.5
05 14.02 СВ 6 н/о н/о +21.6 +14.0 62 +24 +24 комфорт 1018.0 1008.2
07 14.02 СВ 7 н/о н/о +22.7 +14.0 58 +26 +26 жарко 1017.8 1008.0
08 14.02 СВ 7 н/о н/о +21.9 +13.8 60 +25 +25 комфорт 1018.2 1008.4
10 14.02 СВ 5 н/о н/о +20.8 +14.2 66 +24 +24 комфорт 1020.2 1010.4
11 14.02 СВ 4 н/о н/о +20.5 +14.2 67 +23 +23 комфорт 1021.5 1011.7
13 14.02 С 2 н/о н/о +19.8 +14.6 72 +22 +22 комфорт 1022.1 1012.3 +23.2
14 14.02 С 2 н/о н/о +18.6 +14.7 78 +20 +20 1022.3 1012.5
16 14.02 З 1 н/о н/о +18.8 +16.4 86 +22 +22 комфорт 1022.1 1012.3
17 14.02 З 2 н/о н/о +18.5 +16.7 89 +20 +20 1022.3 1012.5
19 14.02 З 2 н/о н/о +18.4 +15.5 83 +20 +20 1022.8 1013.0
20 14.02 ЮЗ 2 н/о н/о +18.4 +15.3 82 +19 +19 1023.2 1013.4
22 14.02 ЮЗ 2 н/о н/о +19.9 +15.5 76 +23 +23 комфорт 1024.0 1014.2
23 14.02 Ю 4 н/о н/о +20.8 +16.0 74 +24 +24 комфорт 1024.3 1014.4
01 15.02 Ю 4 н/о н/о +22.3 +17.2 73 +27 +27 душно 1024.3 1014.4 +18.3
02 15.02 ЮВ 3 н/о н/о +21.4 +15.9 71 +25 +25 комфорт 1023.5 1013.7
04 15.02 В 4 н/о н/о +22.4 +16.2 68 +27 +27 душно 1022.6 1012.8
05 15.02 В 4 н/о н/о +23.3 +17.3 69 +29 +29 душно 1022.3 1012.5
07 15.02 СВ 5 н/о н/о +23.3 +16.6 66 +28 +28 душно 1021.9 1012.1
08 15.02 СВ 5 н/о н/о +22.3 +16.8 71 +27 +27 душно 1022.1 1012.3
10 15.02 СВ 3 н/о н/о +20.4 +16.0 76 +24 +24 комфорт 1023.1 1013.3
11 15.02 СВ 3 н/о н/о +20.3 +15.7 75 +23 +23 комфорт 1023.8 1014.0
13 15.02 С 3 н/о н/о +19.6 +15.9 79 +22 +22 комфорт 1023.3 1013.5 +24.5
14 15.02 С 3 н/о н/о +19.4 +15.5 78 +21 +21 комфорт 1022.8 1013.0
16 15.02 З 1 н/о н/о +18.5 +15.2 81 +20 +20 1021.5 1011.7
17 15.02 З 1 н/о н/о +19.2 +15.7 80 +22 +22 комфорт 1021.4 1011.6
19 15.02 ЮЗ 1 н/о н/о +18.7 +15.4 81 +21 +21 комфорт 1021.2 1011.4
20 15.02 Ю 1 н/о н/о +18.6 +14.9 79 +20 +20 1021.6 1011.8
22 15.02 СЗ 1 н/о н/о +20.6 +14.3 67 +24 +24 комфорт 1021.7 1011.9
23 15.02 С 1 н/о н/о +21.9 +14.8 64 +25 +25 комфорт 1021.4 1011.6
01 16.02 СВ 4 н/о н/о +23.1 +16.2 65 +28 +28 душно 1020.6 1010.8 +18.3
02 16.02 СВ 5 н/о н/о +24.0 +18.0 69 +28 +28 душно 1019.9 1010.1
04 16.02 СВ 7 н/о н/о +24.5 +17.0 63 +28 +28 душно 1018.1 1008.3
05 16.02 СВ 6 н/о н/о +24.8 +17.8 65 +29 +29 душно 1017.5 1007.7
07 16.02 С 7 н/о н/о +24.0 +17.0 65 +28 +28 душно 1016.2 1006.4
08 16.02 С 7 н/о н/о +23.0 +17.0 69 +28 +28 душно 1015.9 1006.1
10 16.02 С 6 н/о н/о +21.8 +17.8 78 +26 +26 душно 1016.2 1006.4
11 16.02 С 7 н/о н/о +21.8 +17.0 74 +26 +26 душно 1016.5 1006.7
13 16.02 С 8 н/о н/о +21.5 +16.9 75 +25 +25 комфорт 1015.6 1005.8 +25.3
14 16.02 С 7 н/о н/о +21.1 +16.9 77 +25 +25 комфорт 1014.9 1005.1
16 16.02 С 6 н/о н/о +20.3 +16.7 80 +23 +23 комфорт 1013.9 1004.1
17 16.02 С 5 н/о н/о +19.8 +16.8 83 +22 +22 комфорт 1013.4 1003.7
19 16.02 С 5 н/о н/о +19.9 +16.5 81 +22 +22 комфорт 1013.0 1003.3
20 16.02 С 5 н/о н/о +19.9 +16.7 82 +22 +22 комфорт 1013.5 1003.8
22 16.02 С 7 н/о н/о +22.9 +16.7 68 +28 +28 душно 1014.0 1004.2
23 16.02 С 6 н/о н/о +24.3 +17.3 65 +28 +28 душно 1013.9 1004.1
01 17.02 С 6 н/о н/о +27.4 +17.0 53 +31 +31 душно 1013.2 1003.5 +19.9
02 17.02 СВ 6 н/о н/о +29.3 +17.8 50 +34 +34 очень
душно
1012.2 1002.5
04 17.02 СВ 8 н/о н/о +27.9 +16.8 51 +32 +32 душно 1010.7 1001.0
05 17.02 С 8 н/о н/о +27.3 +18.0 57 +32 +32 очень
душно
1009.9 1000.2
07 17.02 С 9 н/о н/о +25.4 +18.3 65 +30 +30 душно 1009.4 999.7
08 17.02 С 8 н/о н/о +23.5 +18.8 75 +28 +28 душно 1009.4 999.7
10 17.02 С 8 н/о н/о +22.9 +18.9 78 +29 +29 очень
душно
1010.3 1000.6
11 17.02 С 9 н/о н/о +22.7 +18.7 78 +28 +28 душно 1011.1 1001.4
13 17.02 С 8 н/о н/о +22.5 +17.4 73 +27 +27 душно 1010.5 1000.8 +29.7
14 17.02 С 8 н/о н/о +22.1 +18.3 79 +27 +27 душно 1010.3 1000.6
16 17.02 С 6 н/о н/о +21.3 +19.2 88 +26 +26 душно 1009.4 999.7
17 17.02 С 6 н/о н/о +21.1 +19.4 90 +26 +26 душно 1008.9 999.2
19 17.02 С 6 н/о н/о +20.5 +19.5 94 +24 +24 комфорт 1008.5 998.8
20 17.02 С 6 н/о н/о +20.4 +19.4 94 +24 +24 комфорт 1008.9 999.2
22 17.02 С 8 н/о н/о +23.3 +19.9 81 +30 +30 очень
душно
1009.4 999.7
23 17.02 С 8 н/о н/о +24.9 +19.1 70 +30 +30 душно 1009.1 999.4
01 18.02 С 10 н/о н/о +26.4 +19.0 64 +32 +32 очень
душно
1007.7 998.0 +20.4
02 18.02 СВ 10 н/о н/о +27.3 +18.9 60 +32 +32 очень
душно
1006.8 997.1
04 18.02 С 10 н/о н/о +25.4 +20.0 72 +31 +31 очень
душно
1004.9 995.2
05 18.02 С 9 н/о н/о +25.8 +20.4 72 +32 +32 очень
душно
1004.2 994.5
07 18.02 С 10 н/о н/о +25.3 +19.7 71 +31 +31 очень
душно
1002.9 993.3
08 18.02 С 10 н/о н/о +23.9 +20.2 80 +30 +30 очень
душно
1003.0 993.4
10 18.02 СВ 4 н/о н/о +24.0 +17.7 68 +28 +28 душно 1006.4 996.7
11 18.02 З 2 н/о н/о +22.5 +18.7 79 +28 +28 душно 1008.1 998.4
13 18.02 СВ 8 н/о в посл. час дождь {туман} н/о +21.6 +18.8 84 +26 +26 душно 1005.8 996.1 +27.7
14 18.02 С 7 н/о н/о +23.3 +19.0 77 +30 +30 очень
душно
1006.0 996.3
16 18.02 С 8 н/о {туман} н/о +23.0 +19.6 81 +30 +30 очень
душно
1005.0 995.3
17 18.02 С 8 н/о н/о +22.8 +19.6 82 +29 +29 очень
душно
1004.2 994.5
19 18.02 ЮЗ 4 н/о н/о +20.0 +18.3 90 +23 +23 комфорт 1005.5 995.8
20 18.02 ЮЗ 7 н/о н/о +19.7 +17.7 88 +22 +22 комфорт 1006.0 996.3
22 18.02 ЮЗ 8 н/о н/о +19.6 +17.2 86 +21 +21 комфорт 1007.4 997.7
23 18.02 ЮЗ 8 н/о н/о +19.8 +17.0 84 +22 +22 комфорт 1007.9 998.2
01 19.02 Ю 8 н/о н/о +19.7 +16.3 81 +21 +21 комфорт 1008.5 998.8 +19.5

 

Местоположение метеостанции Перпендикуляр Пойнт (Новый Южный Уэльс, Австралия): широта -35.08 долгота 150.80 высота над уровнем моря 84 м.

В архиве по умолчанию представлена погода в Перпендикуляр Пойнт за последнюю неделю. Архивные данные за месяц целиком и за предыдущие месяцы, начиная с января 2011 года, Вы можете получить, выбрав интересующий диапазон дат из раскрывающегося списка и нажав кнопку "Ввод!".


*Определитесь, кто Вы:
робот инопланетянин человек

Внимание! Время в таблицах - всемирное. Для получения местного времени необходимо прибавить поправку, которая равна 10 ч.

Смотрите также архив погоды в соседних городах и на ближайших метеорологических станциях:

Погода в Нора Хилл (Новый Южный Уэльс, Австралия) (29 км)
Погода в Улладалле (Новый Южный Уэльс, Австралия) (42 км)
Погода в Киаме (Новый Южный Уэльс, Австралия) (48 км)
Погода в Вуллонгонге (Новый Южный Уэльс, Австралия) (57 км)
Погода в Нерриге (Новый Южный Уэльс, Австралия) (66 км)
Погода в Мосс Вейл (Новый Южный Уэльс, Австралия) (71 км)
Погода в Белламби (Новый Южный Уэльс, Австралия) (79 км)
Погода в Брейдвуде (Новый Южный Уэльс, Австралия) (100 км)
Погода в Гоулберне (Новый Южный Уэльс, Австралия) (102 км)
Погода в Моруе (Новый Южный Уэльс, Австралия) (109 км)

Пояснения к столбцам:

Ветер - указаны скорость ветра в м/с - средняя за 10 мин, порывы в срок и между сроками (в фигурных скобках) и направление, откуда дует ветер: С - северный, СВ - северо-восточный, В - восточный, ЮВ - юго-восточный, Ю - южный, ЮЗ - юго-западный, З - западный, СЗ - северо-западный.
Видимость - горизонтальная дальность видимости в метрах или километрах. При видимости от 1 до 10 км при отсутствии осадков обычно наблюдается дымка, при ухудшении видимости до 1 км и менее - туман. В сухую погоду видимость может ухудшаться дымом, пылью или мглою.
Явления - указаны атмосферные явления, наблюдавшиеся в срок или в последний час перед сроком; фигурными скобками обозначены явления, наблюдавшиеся между сроками (за 1-3 часа до срока); квадратными скобками обозначены град или гололедные отложения с указанием их диаметра в мм.
Облачность - указаны через наклонную черту общая и нижняя облачность в баллах и высота нижней границы облаков в метрах; квадратными скобками обозначены формы облаков: Ci - перистые, Cs - перисто-слоистые, Cc - перисто-кучевые, Ac - высококучевые, As - высокослоистые, Sc - слоисто-кучевые, Ns - слоисто-дождевые, Cu - кучевые, Cb - кучево-дождевые. Подробнее классификацию облаков см. в Атласе облаков (PDF).
T - Температура воздуха - температура, измеренная на высоте 2 м над землей.
Td - Температура точки росы - температура, при понижении до которой содержащийся в воздухе водяной пар достигнет насыщения.
f - Относительная влажность воздуха - влажноcть воздуха, измеренная на высоте 2 м над землей.
Te - Эффективная температура - температура, которую ощущает одетый по сезону человек в тени. Характеристика душности погоды. При расчете учитывается влияние влажности воздуха и скорости ветра на теплоощущения человека.
Tes - Эффективная температура на солнце - температура, которую ощущает человек, с поправкой на солнечный нагрев. Характеристика знойности погоды. Зависит от высоты солнца над горизонтом, облачности и скорости ветра. Ночью, в пасмурную погоду, а также при ветре 12 м/с и более поправка равна нулю.
P - Атмосферное давление - приведенное к уровню моря атмосферное давление.
Po - Атмосферное давление - измеренное на уровне метеостанции атмосферное давление.
Tmin - Минимальная температура - минимум температуры воздуха на высоте 2 м над землей.
Tmax - Максимальная температура - максимум температуры воздуха на высоте 2 м над землей.
R - Количество осадков - Количество выпавших осадков за период времени, мм. При наведении курсора мыши на число - период времени, за который выпало указанное количество осадков.
R24 - Количество осадков - Количество выпавших осадков за 24 часа, мм.
S - Снежный покров - Высота снежного покрова, см. При наведении курсора мыши на число - состояние снежного покрова и степень покрытия местности в баллах.